Location: Clyde
(45.1830°S, 169.3170°E)
Time: 17:08:30
(UTC+12:00)

Lacrosse 5 - Pass Details

Date: 14 May 2021
Orbit: 715 x 724 km, 57.0° (Epoch: 13 June)

Event Time Altitude Azimuth Distance (km) Brightness Sun altitude
Rises 19:26:27 0° 229° (SW) 3,162 5.8 -21.4°
Reaches altitude 10° 19:28:53 10° 226° (SW) 2,236 4.9 -21.8°
Maximum altitude 19:34:01 67° 143° (SE) 789 1.8 -22.7°
Enters shadow 19:34:38 60° 101° (ESE) 829 1.8 -22.8°
